FW0689 Weather Reports


Display with metric or nautical units.
time (UTC)temp
F
wind
direction
speed
MPH
gust
MPH
rain 1hr
in
rain 24hr
in
rain mn
in
humidity
%
barometer
mb
20260504223926 51 13 0.0 0.0 0.00 0.00 0.00 38 1017.9
20260504222926 52 1 0.0 0.0 0.00 0.00 0.00 38 1018.0
20260504221926 52 7 0.0 0.0 0.00 0.00 0.00 38 1018.0
20260504215111 52 3 0.0 0.0 0.00 0.00 0.00 37 1018.1
20260504214111 52 4 0.0 0.0 0.00 0.00 0.00 37 1018.2
20260504214011 52 359 0.0 0.0 0.00 0.00 0.00 37 1018.2
20260504213010 53 5 0.0 0.0 0.00 0.00 0.00 37 1018.3
20260504211010 53 5 0.0 0.0 0.00 0.00 0.00 37 1018.5
20260504210011 54 3 0.0 0.0 0.00 0.00 0.00 37 1018.3
20260504205111 54 21 0.0 0.0 0.00 0.00 0.00 37 1018.3
20260504203112 55 16 0.0 0.0 0.00 0.00 0.00 36 1018.4
20260504202210 55 14 0.0 0.0 0.00 0.00 0.00 35 1018.3
20260504200312 56 19 0.0 0.0 0.00 0.00 0.00 36 1018.3
20260504195409 56 22 0.0 0.0 0.00 0.00 0.00 36 1018.3
20260504194412 56 15 0.0 0.0 0.00 0.00 0.00 36 1018.1
20260504193411 57 18 0.0 0.0 0.00 0.00 0.00 36 1018.2
20260504190425 58 2 0.0 0.0 0.00 0.00 0.00 36 1017.8
20260504185411 58 7 0.0 0.0 0.00 0.00 0.00 36 1017.8
20260504184509 58 2 0.0 0.0 0.00 0.00 0.00 36 1017.8
20260504183511 59 355 0.0 0.0 0.00 0.00 0.00 36 1017.7
20260504181610 59 23 0.0 0.0 0.00 0.00 0.00 35 1017.6
20260504175612 60 19 0.0 0.0 0.00 0.00 0.00 35 1017.5
20260504174710 60 22 0.0 0.0 0.00 0.00 0.00 35 1017.5
20260504173710 60 26 0.0 0.0 0.00 0.00 0.00 35 1017.5
20260504172711 60 18 0.0 0.0 0.00 0.00 0.00 35 1017.3
20260504172612 60 21 0.0 0.0 0.00 0.00 0.00 35 1017.3
20260504171610 60 356 0.0 0.0 0.00 0.00 0.00 35 1017.4
20260504170611 60 9 0.0 0.0 0.00 0.00 0.00 35 1017.3
20260504150810 61 7 0.0 0.0 0.00 0.00 0.00 34 1017.4
20260504140927 62 310 0.0 0.0 0.00 0.00 0.00 35 1017.7
20260504120310 66 244 0.0 0.0 0.00 0.00 0.00 36 1017.6
20260504100511 65 180 0.0 0.0 0.00 0.00 0.00 31 1018.2
20260504080808 59 204 0.0 0.0 0.00 0.00 0.00 34 1018.3
20260504050110 57 112 0.0 0.0 0.00 0.00 0.00 35 1017.1
20260504045209 56 112 0.0 0.0 0.00 0.00 0.00 36 1016.9
20260504044210 56 112 0.0 0.0 0.00 0.00 0.00 36 1016.9
20260504043210 56 112 0.0 0.0 0.00 0.00 0.00 36 1016.9
20260504042211 56 112 0.0 0.0 0.00 0.00 0.00 36 1016.8
20260504041309 56 178 0.0 0.0 0.00 0.00 0.00 36 1016.9
20260504040311 56 151 0.0 0.0 0.00 0.00 0.00 36 1016.9
20260504035309 56 180 0.0 0.0 0.00 0.00 0.00 36 1016.8
20260504034312 56 180 0.0 0.0 0.00 0.00 0.00 36 1016.9
20260504033309 56 315 0.0 0.0 0.00 0.00 0.00 36 1016.8
20260504032309 56 315 0.0 0.0 0.00 0.00 0.00 36 1016.8
20260504031312 56 247 0.0 0.0 0.00 0.00 0.00 36 1016.9
20260504025408 56 247 0.0 0.0 0.00 0.00 0.00 36 1016.7
20260504024410 56 225 0.0 0.0 0.00 0.00 0.00 35 1016.7
20260504023409 56 247 0.0 0.0 0.00 0.00 0.00 35 1016.7
20260504022426 56 270 0.0 0.0 0.00 0.00 0.00 35 1016.5
20260504021425 56 270 0.0 0.0 0.00 0.00 0.00 35 1016.5
20260504020509 56 225 0.0 0.0 0.00 0.00 0.00 35 1016.7
20260504015509 56 225 0.0 0.0 0.00 0.00 0.00 36 1016.5
20260504014509 56 240 0.0 0.0 0.00 0.00 0.00 36 1016.5
20260504013510 56 224 0.0 0.0 0.00 0.00 0.00 35 1016.5
20260504011610 56 225 0.0 0.0 0.00 0.00 0.00 35 1016.4
20260504010610 57 247 0.0 0.0 0.00 0.00 0.00 35 1016.4
20260504005609 57 245 0.0 0.0 0.00 0.00 0.00 35 1016.4
20260504004611 57 247 0.0 0.0 0.00 0.00 0.00 35 1016.4
20260504002609 57 231 0.0 0.0 0.00 0.00 0.00 35 1016.5
20260504001611 57 230 0.0 0.0 0.00 0.00 0.00 35 1016.5
20260503234708 57 203 0.0 0.0 0.00 0.00 0.00 35 1016.4
20260503233709 57 233 0.0 0.0 0.00 0.00 0.00 35 1016.2
20260503232809 57 221 0.0 0.0 0.00 0.00 0.00 35 1016.4
20260503231811 57 247 0.0 0.0 0.00 0.00 0.00 35 1016.3
20260503225810 56 225 0.0 0.0 0.00 0.00 0.00 35 1016.3